Change the Weather History Date:

Wednesday, March 26, 2014

  Actual Average Record
Temperature  
Mean Temperature 24 °F -  
Max Temperature 39 °F 46 °F 80 °F (2007)
Min Temperature 8 °F 25 °F -2 °F (1955)
Degree Days  
Heating Degree Days 42    
Moisture  
Dew Point 17 °F    
Average Humidity 69    
Maximum Humidity 92    
Minimum Humidity 51    
Precipitation  
Precipitation 0.00 in - - ()
Sea Level Pressure  
Sea Level Pressure 29.89 in    
Wind  
Wind Speed 7 mph (SSE)    
Max Wind Speed 23 mph    
Max Gust Speed 31 mph    
Visibility 10 miles    
Events      
Averages and records for this station are not official NWS values.
T = Trace of Precipitation, MM = Missing Value Source: NWS Daily Summary

Daily Weather History Graph

Daily Weather History Graph

Search for Another Location

Airport or City:

Trip Planner

Search our weather history database for the weather conditions in past years. The results will help you decide how hot, cold, wet, or windy it might be!

Date:

Astronomy

Mar. 26, 2014 Rise Set
Actual Time 7:04 AM CDT 7:32 PM CDT
Civil Twilight 6:35 AM CDT 8:02 PM CDT
Nautical Twilight 6:01 AM CDT 8:36 PM CDT
Astronomical Twilight 5:25 AM CDT 9:12 PM CDT
Moon 4:24 AM CDT (3/26) 3:02 PM CDT (3/26)
Length of Visible Light 13h 26m
Length of Day
12h 28m
Waning Crescent, 21% of the Moon is Illuminated
Mar 26
Waning Crescent
Mar 30
New
Apr 7
First Quarter
Apr 15
Full
Apr 22
Last Quarter

Hourly Weather History & Observations

Time (CDT) Temp. Windchill Dew Point Humidity Pressure Visibility Wind Dir Wind Speed Gust Speed Precip Events Conditions
12:18 AM 8.6 °F - 6.8 °F 92% 30.15 in 10.0 mi Calm Calm - N/A   Clear
12:38 AM 10.4 °F - 6.8 °F 85% 30.15 in 10.0 mi Calm Calm - N/A   Clear
12:58 AM 8.6 °F - 6.8 °F 92% 30.14 in 10.0 mi Calm Calm - N/A   Clear
1:17 AM 10.4 °F - 6.8 °F 85% 30.14 in 10.0 mi Calm Calm - N/A   Clear
1:38 AM 10.4 °F - 6.8 °F 85% 30.14 in 10.0 mi Calm Calm - N/A   Clear
1:58 AM 10.4 °F - 6.8 °F 85% 30.14 in 10.0 mi Calm Calm - N/A   Clear
2:17 AM 10.4 °F - 6.8 °F 85% 30.14 in 10.0 mi Calm Calm - N/A   Clear
2:38 AM 10.4 °F - 6.8 °F 85% 30.13 in 10.0 mi Calm Calm - N/A   Clear
2:57 AM 10.4 °F 0.8 °F 6.8 °F 85% 30.13 in 10.0 mi South 5.8 mph - N/A   Clear
3:18 AM 12.2 °F 4.3 °F 8.6 °F 85% 30.13 in 10.0 mi South 4.6 mph - N/A   Clear
3:37 AM 12.2 °F 6.1 °F 8.6 °F 85% 30.12 in 10.0 mi SSE 3.5 mph - N/A   Clear
3:58 AM 10.4 °F - 6.8 °F 85% 30.12 in 10.0 mi Calm Calm - N/A   Clear
4:18 AM 10.4 °F - 6.8 °F 85% 30.12 in 10.0 mi Calm Calm - N/A   Clear
4:37 AM 10.4 °F 4.0 °F 6.8 °F 85% 30.12 in 10.0 mi South 3.5 mph - N/A   Clear
4:58 AM 10.4 °F - 6.8 °F 85% 30.11 in 10.0 mi Calm Calm - N/A   Clear
5:17 AM 10.4 °F - 8.6 °F 92% 30.10 in 10.0 mi Calm Calm - N/A   Clear
5:38 AM 12.2 °F - 8.6 °F 85% 30.10 in 10.0 mi Calm Calm - N/A   Clear
5:57 AM 12.2 °F - 8.6 °F 85% 30.09 in 10.0 mi Calm Calm - N/A   Clear
6:18 AM 14.0 °F 6.5 °F 8.6 °F 79% 30.09 in 10.0 mi South 4.6 mph - N/A   Scattered Clouds
6:38 AM 15.8 °F 6.1 °F 10.4 °F 79% 30.09 in 10.0 mi SSE 6.9 mph - N/A   Mostly Cloudy
6:57 AM 15.8 °F 8.6 °F 10.4 °F 79% 30.09 in 10.0 mi SSE 4.6 mph - N/A   Overcast
7:18 AM 17.6 °F 9.3 °F 10.4 °F 73% 30.09 in 10.0 mi South 5.8 mph - N/A   Overcast
7:37 AM 17.6 °F 6.4 °F 12.2 °F 79% 30.07 in 10.0 mi SSE 9.2 mph - N/A   Overcast
7:58 AM 17.6 °F 8.2 °F 12.2 °F 79% 30.07 in 10.0 mi SSE 6.9 mph - N/A   Overcast
8:18 AM 19.4 °F 9.5 °F 12.2 °F 74% 30.06 in 10.0 mi SSE 8.1 mph - N/A   Overcast
8:37 AM 19.4 °F 9.5 °F 12.2 °F 74% 30.05 in 10.0 mi SSE 8.1 mph - N/A   Overcast
8:58 AM 19.4 °F 7.9 °F 12.2 °F 74% 30.03 in 10.0 mi SE 10.4 mph - N/A   Overcast
9:17 AM 19.4 °F 8.6 °F 12.2 °F 74% 30.03 in 10.0 mi SSE 9.2 mph - N/A   Overcast
9:38 AM 21.2 °F 8.9 °F 14.0 °F 74% 30.02 in 10.0 mi SSE 12.7 mph 16.1 mph N/A   Mostly Cloudy
9:58 AM 24.8 °F 14.0 °F 14.0 °F 64% 30.01 in 10.0 mi SSE 11.5 mph 16.1 mph N/A   Scattered Clouds
10:17 AM 24.8 °F 11.9 °F 14.0 °F 64% 30.00 in 10.0 mi SSE 16.1 mph - N/A   Scattered Clouds
10:38 AM 26.6 °F 16.2 °F 14.0 °F 59% 30.00 in 10.0 mi SSE 11.5 mph 20.7 mph N/A   Clear
10:58 AM 28.4 °F 17.5 °F 15.8 °F 59% 29.98 in 10.0 mi SSE 13.8 mph - N/A   Clear
11:18 AM 28.4 °F 18.5 °F 15.8 °F 59% 29.97 in 10.0 mi SE 11.5 mph 23.0 mph N/A   Clear
11:38 AM 30.2 °F 18.9 °F 15.8 °F 55% 29.95 in 10.0 mi SE 16.1 mph 20.7 mph N/A   Clear
11:57 AM 30.2 °F 19.3 °F 15.8 °F 55% 29.93 in 10.0 mi SE 15.0 mph 23.0 mph N/A   Clear
12:18 PM 32.0 °F 20.5 °F 15.8 °F 51% 29.91 in 10.0 mi SSE 18.4 mph 24.2 mph N/A   Clear
12:37 PM 32.0 °F 20.8 °F 17.6 °F 55% 29.89 in 10.0 mi SSE 17.3 mph 27.6 mph N/A   Clear
12:58 PM 33.8 °F 23.2 °F 17.6 °F 52% 29.87 in 10.0 mi SSE 17.3 mph 29.9 mph N/A   Clear
1:18 PM 35.6 °F 25.2 °F 19.4 °F 52% 29.86 in 10.0 mi SSE 18.4 mph 21.9 mph N/A   Clear
1:37 PM 35.6 °F 25.9 °F 19.4 °F 52% 29.84 in 10.0 mi SSE 16.1 mph 27.6 mph N/A   Clear
1:58 PM 35.6 °F 25.5 °F 21.2 °F 56% 29.82 in 10.0 mi SSE 17.3 mph 27.6 mph N/A   Clear
2:17 PM 35.6 °F 24.0 °F 21.2 °F 56% 29.81 in 10.0 mi SSE 23.0 mph 27.6 mph N/A   Clear
2:38 PM 35.6 °F 24.5 °F 21.2 °F 56% 29.79 in 10.0 mi SSE 20.7 mph 29.9 mph N/A   Clear
2:58 PM 37.4 °F 26.9 °F 21.2 °F 52% 29.78 in 10.0 mi SSE 20.7 mph 26.5 mph N/A   Clear
3:17 PM 37.4 °F 26.9 °F 23.0 °F 56% 29.77 in 10.0 mi SSE 20.7 mph 31.1 mph N/A   Clear
3:38 PM 37.4 °F 26.9 °F 23.0 °F 56% 29.75 in 10.0 mi SSE 20.7 mph 29.9 mph N/A   Clear
3:57 PM 37.4 °F 27.5 °F 24.8 °F 60% 29.75 in 10.0 mi SSE 18.4 mph 29.9 mph N/A   Clear
4:18 PM 37.4 °F 27.2 °F 24.8 °F 60% 29.73 in 10.0 mi SSE 19.6 mph 27.6 mph N/A   Clear
4:38 PM 37.4 °F 27.2 °F 24.8 °F 60% 29.73 in 10.0 mi SSE 19.6 mph 27.6 mph N/A   Clear
4:57 PM 37.4 °F 26.4 °F 24.8 °F 60% 29.72 in 10.0 mi SSE 23.0 mph 31.1 mph N/A   Clear
5:18 PM 39.2 °F 29.6 °F 24.8 °F 56% 29.72 in 10.0 mi SSE 19.6 mph 29.9 mph N/A   Clear
5:37 PM 37.4 °F 27.8 °F 24.8 °F 60% 29.71 in 10.0 mi SSE 17.3 mph 29.9 mph N/A   Clear
5:58 PM 37.4 °F 29.3 °F 24.8 °F 60% 29.71 in 10.0 mi SE 12.7 mph 23.0 mph N/A   Clear
6:18 PM 37.4 °F 28.2 °F 24.8 °F 60% 29.70 in 10.0 mi SSE 16.1 mph 21.9 mph N/A   Clear
6:37 PM 37.4 °F 28.2 °F 24.8 °F 60% 29.69 in 10.0 mi SE 16.1 mph 23.0 mph N/A   Clear
6:58 PM 35.6 °F 25.5 °F 24.8 °F 65% 29.67 in 10.0 mi SE 17.3 mph 21.9 mph N/A   Clear
7:17 PM 35.6 °F 26.2 °F 24.8 °F 65% 29.66 in 10.0 mi SE 15.0 mph 24.2 mph N/A   Clear
7:38 PM 35.6 °F 26.2 °F 24.8 °F 65% 29.64 in 10.0 mi SE 15.0 mph 24.2 mph N/A   Clear
7:57 PM 35.6 °F 25.9 °F 24.8 °F 65% 29.63 in 10.0 mi SSE 16.1 mph 26.5 mph N/A   Clear
8:18 PM 35.6 °F 25.9 °F 24.8 °F 65% 29.62 in 10.0 mi SE 16.1 mph 25.3 mph N/A   Clear
8:38 PM 35.6 °F 25.9 °F 24.8 °F 65% 29.62 in 10.0 mi SE 16.1 mph 21.9 mph N/A   Clear
8:58 PM 35.6 °F 26.6 °F 24.8 °F 65% 29.61 in 10.0 mi SSE 13.8 mph 24.2 mph N/A   Mostly Cloudy
9:18 PM 35.6 °F 25.5 °F 24.8 °F 65% 29.61 in 10.0 mi SSE 17.3 mph 24.2 mph N/A   Overcast
9:37 PM 37.4 °F 28.2 °F 24.8 °F 60% 29.60 in 10.0 mi SSE 16.1 mph 21.9 mph N/A   Overcast
9:58 PM 37.4 °F 27.5 °F 24.8 °F 60% 29.60 in 10.0 mi SSE 18.4 mph 24.2 mph N/A   Overcast
10:17 PM 37.4 °F 27.5 °F 24.8 °F 60% 29.60 in 10.0 mi SSE 18.4 mph 25.3 mph N/A   Overcast
10:38 PM 37.4 °F 26.9 °F 24.8 °F 60% 29.59 in 10.0 mi SSE 20.7 mph 26.5 mph N/A   Overcast
10:57 PM 37.4 °F 28.2 °F 26.6 °F 65% 29.59 in 10.0 mi SSE 16.1 mph 21.9 mph N/A   Overcast
11:18 PM 37.4 °F 28.9 °F 26.6 °F 65% 29.59 in 10.0 mi SSE 13.8 mph 18.4 mph N/A   Overcast
11:38 PM 37.4 °F 31.4 °F 26.6 °F 65% 29.59 in 10.0 mi SE 8.1 mph - N/A   Overcast
11:57 PM 37.4 °F 31.4 °F 26.6 °F 65% 29.59 in 10.0 mi SE 8.1 mph - N/A   Overcast